2023-007D (55251 NORAD) Tracking and Keplerian Element Data

This shows tracking and keplerian element data for the satellite.

Feedback or suggestion? Click here.




ElementValue
Catalog55251
Name2023-007D
Epoch Orbit1697
Epoch Day126.49426597
Epoch Year2023
RAAN199.3908
Inclination97.3636
Eccentricity0.00144
Argument of Perigee161.1568
Mean Anonmoly326.0826
Mean Motion15.26524033
Decay Rate0.000221
L11 55251U 23007D 23126.49426597 .00022100 00000+0 84470-3 0 9990
L22 55251 97.3636 199.3908 0014400 161.1568 326.0826 15.26524033 16971



Live tracking and technical data element details for 2023-007D (NORAD 55251). 2023-007D can be tracked NOW for your location showing map with azimuth and elevation plus other details from your city location.







IsCatalogInMostPopularTable: catalog: 55251, numindb: -1

Insert: records affected: 1


GetName: 55251 2023-007D

Hit Count: inserted at: Sun, 28 May 2023 05:21:37 GMT